Location: Ebendorf
(52.1827°N, 11.5706°E)
Time: 09:58:37
(UTC+00:00)

Cosmos 1842 - Pass Details

Date: 15 May 2021
Orbit: 521 x 535 km, 82.5° (Epoch: 20 June)

Event Time Altitude Azimuth Distance (km) Brightness Sun altitude
Exits shadow 00:31:50 31° 235° (SW) 945 4.1 -16.7°
Maximum altitude 00:33:13 44° 286° (WNW) 733 3.9 -16.7°
Drops below altitude 10° 00:36:59 10° 360° (N) 1,782 7.0 -16.5°
Sets 00:39:13 0° 7° (N) 2,679 8.4 -16.3°
